Zurück zum Katalog

HYDROGNSS-1

AktivWissenschaftSSO
NORAD 66762·PAYLOAD·🇪🇺 EU

Gestartet Nov 28, 2025 von Vandenberg Space Force Base

Loading…

Nächste Überflüge (nächste 24 Stunden)

TLE

AktuellSource: Space-Track

Epoche: Sep 14, 2026, 15:05 UTC

1 66762U 25276DA  26257.62869559  .00002176  00000-0  13068-3 0  9998
2 66762  97.4122 327.5076 0012491 101.2040 259.0595 15.11869975 43867

Verfolge HYDROGNSS-1 in Echtzeit mit AllMySat

Download on the App Store